Weather History for KNTD - December, 2012

Change the Weather History Date:

Thursday, December 6, 2012

  Actual Average Record
Temperature  
Mean Temperature 58 °F -  
Max Temperature 63 °F 62 °F 73 °F (2005)
Min Temperature 52 °F 44 °F 32 °F (2006)
Degree Days  
Heating Degree Days 7    
Growing Degree Days 8 (Base 50)    
Moisture  
Dew Point 56 °F    
Average Humidity 94    
Maximum Humidity 100    
Minimum Humidity 81    
Precipitation  
Precipitation 0.00 in - - ()
Sea Level Pressure  
Sea Level Pressure 29.95 in    
Wind  
Wind Speed 4 mph (NE)    
Max Wind Speed 12 mph    
Max Gust Speed -    
Visibility 5 miles    
Events      
Averages and records for this station are not official NWS values.
T = Trace of Precipitation, MM = Missing Value Source: NWS Daily Summary

Daily Weather History Graph

Daily Weather History Graph

Search for Another Location

Airport or City:

Trip Planner

Search our weather history database for the weather conditions in past years. The results will help you decide how hot, cold, wet, or windy it might be!

Date:

Astronomy

Dec. 06, 2012 Rise Set
Actual Time 6:48 AM PST 4:46 PM PST
Civil Twilight 6:21 AM PST 5:14 PM PST
Nautical Twilight 5:49 AM PST 5:45 PM PST
Astronomical Twilight 5:19 AM PST 6:15 PM PST
Moon No Moon Rise 11:59 AM PST
Length of Visible Light 10h 53m
Length of Day
9h 58m
Waning Gibbous, 48% of the Moon is Illuminated
Dec 6
Waning Gibbous
Dec 13
New
Dec 19
First Quarter
Dec 28
Full
Jan 4
Last Quarter

Hourly Weather History & Observations

Time (PST) Temp. Dew Point Humidity Pressure Visibility Wind Dir Wind Speed Gust Speed Precip Events Conditions
12:54 AM 55.9 °F 55.9 °F 100% 30.02 in - Calm Calm - N/A   Overcast
1:54 AM 55.9 °F 55.9 °F 100% 30.00 in - ENE 6.9 mph - N/A   Overcast
2:01 AM 55.4 °F 55.4 °F 100% 30.00 in - ENE 3.5 mph - N/A   Overcast
2:54 AM 57.0 °F 57.0 °F 100% 29.99 in - NE 4.6 mph - N/A   Overcast
3:54 AM 57.0 °F 57.0 °F 100% 29.98 in - NE 5.8 mph - N/A   Overcast
4:51 AM 55.4 °F 55.4 °F 100% 29.96 in 5.0 mi ENE 9.2 mph - N/A   Overcast
4:54 AM 55.9 °F 55.9 °F 100% 29.96 in 5.0 mi ENE 6.9 mph - N/A   Overcast
5:54 AM 57.2 °F 52.2 °F 83% 29.96 in 3.0 mi ENE 11.5 mph - N/A   Overcast
6:54 AM 56.7 °F 52.7 °F 87% 29.97 in 3.0 mi NE 5.8 mph - N/A   Overcast
7:22 AM 57.2 °F 53.6 °F 88% 29.97 in 2.0 mi NE 5.8 mph - N/A   Overcast
7:54 AM 56.8 °F 53.6 °F 89% 29.99 in 2.0 mi NNE 5.8 mph - N/A   Overcast
8:01 AM 55.4 °F 53.6 °F 94% 29.98 in 2.0 mi NNE 5.8 mph - N/A   Overcast
8:14 AM 55.4 °F 55.4 °F 100% 29.99 in 2.5 mi North 5.8 mph - N/A   Overcast
8:33 AM 57.2 °F 53.6 °F 88% 29.99 in 2.5 mi SSE 5.8 mph - N/A   Overcast
8:54 AM 57.7 °F 54.1 °F 88% 30.00 in 2.5 mi NNE 5.8 mph - N/A   Overcast
9:54 AM 61.2 °F 56.5 °F 85% 30.01 in 3.0 mi Calm Calm - N/A   Overcast
10:54 AM 61.2 °F 56.5 °F 85% 29.99 in 4.0 mi SSW 3.5 mph - N/A   Overcast
11:54 AM 63.3 °F 57.4 °F 81% 29.96 in 5.0 mi Variable 4.6 mph - N/A   Haze
12:54 PM 63.3 °F 57.4 °F 81% 29.94 in 5.0 mi SW 5.8 mph - N/A   Haze
1:18 PM 60.8 °F 57.2 °F 88% 29.92 in - Calm Calm - N/A   Haze
1:22 PM 60.8 °F 57.2 °F 88% 29.92 in - SW 4.6 mph - N/A   Haze
1:54 PM 62.8 °F 60.6 °F 93% 29.91 in 5.0 mi SW 4.6 mph - N/A   Haze
2:54 PM 63.5 °F 59.7 °F 87% 29.90 in 6.0 mi SSW 4.6 mph - N/A   Haze
3:54 PM 62.8 °F 60.6 °F 93% 29.89 in 7.0 mi Calm Calm - N/A   Haze
4:54 PM 60.1 °F 59.0 °F 96% 29.89 in 7.0 mi Calm Calm - N/A   Haze
5:06 PM 59.0 °F 59.0 °F 100% 29.88 in 7.0 mi Calm Calm - N/A   Haze
5:16 PM 59.0 °F 59.0 °F 100% 29.89 in 7.0 mi NW 3.5 mph - N/A   Haze
5:54 PM 57.9 °F 57.9 °F 100% 29.90 in 7.0 mi Calm Calm - N/A   Clear
6:54 PM 57.0 °F 57.0 °F 100% 29.91 in 7.0 mi Calm Calm - N/A   Clear
7:54 PM 55.9 °F 55.9 °F 100% 29.92 in 7.0 mi Calm Calm - N/A   Clear
8:54 PM 55.0 °F 55.0 °F 100% 29.92 in 7.0 mi NW 4.6 mph - N/A   Clear
9:54 PM 54.0 °F 54.0 °F 100% 29.93 in 7.0 mi NNE 3.5 mph - N/A   Clear
10:54 PM 53.1 °F 53.1 °F 100% 29.93 in 7.0 mi East 5.8 mph - N/A   Clear
11:54 PM 52.0 °F 52.0 °F 100% 29.94 in - North 4.6 mph - N/A   Clear